Location: Gerlach
(40.6516°N, 119.3568°W)
Time: 22:12:26
(UTC-08:00)

A-11 Canister half - Visible Passes

Search period start: 05 February 2023 00:00
Search period end: 15 February 2023 00:00
Orbit: 1525 x 1683 km, 47.3° (Epoch: 05 February)

Date Brightness Start Highest point End Pass type
(mag) Time Alt. Az. Time Alt. Az. Time Alt. Az.
05 Feb 9.6 04:04:25 33° S 04:08:01 46° SE 04:16:44 10° ENE visible
05 Feb 9.0 06:03:21 10° WSW 06:12:39 77° NNW 06:22:06 10° ENE visible
06 Feb 9.6 03:44:28 40° SSE 03:46:22 44° SE 03:55:00 10° ENE visible
06 Feb 8.9 05:42:49 15° WSW 05:50:57 79° NNW 06:00:23 10° ENE visible
07 Feb 9.6 03:24:24 42° SE 03:24:44 42° SE 03:33:14 10° ENE visible
07 Feb 8.9 05:22:44 23° WSW 05:29:14 81° NNW 05:38:40 10° ENE visible
08 Feb 9.8 03:04:14 38° ESE 03:04:14 38° ESE 03:11:29 10° ENE visible
08 Feb 8.9 05:02:33 32° WSW 05:07:31 83° NNW 05:16:56 10° ENE visible
09 Feb 10.1 02:43:58 33° ESE 02:43:58 33° ESE 02:49:43 10° ENE visible
09 Feb 8.8 04:42:17 44° WSW 04:45:50 85° NNW 04:55:13 10° ENE visible
10 Feb 10.4 02:23:38 26° E 02:23:38 26° E 02:27:58 10° ENE visible
10 Feb 8.8 04:21:55 59° WSW 04:24:07 88° NNW 04:33:31 10° ENE visible
10 Feb 9.2 06:20:41 10° W 06:29:50 58° N 06:39:06 10° ENE visible
11 Feb 10.7 02:03:14 20° E 02:03:14 20° E 02:06:12 10° ENE visible
11 Feb 8.7 04:01:31 76° WSW 04:02:25 90° SSE 04:11:48 10° ENE visible
11 Feb 9.2 05:59:49 13° W 06:08:05 59° N 06:17:21 10° ENE visible
12 Feb 10.9 01:42:46 15° E 01:42:46 15° E 01:44:24 10° ENE visible
12 Feb 8.8 03:41:04 84° E 03:41:04 84° E 03:50:05 10° ENE visible
12 Feb 9.2 05:39:21 19° W 05:46:20 59° N 05:55:36 10° ENE visible
13 Feb 11.1 01:22:16 11° ENE 01:22:16 11° ENE 01:22:37 10° ENE visible
13 Feb 9.1 03:20:33 67° ENE 03:20:33 67° ENE 03:28:23 10° ENE visible
13 Feb 9.2 05:18:50 25° WNW 05:24:36 59° N 05:33:50 10° ENE visible
14 Feb 9.4 03:00:01 53° ENE 03:00:01 53° ENE 03:06:40 10° ENE visible
14 Feb 9.1 04:58:18 33° WNW 05:02:51 60° N 05:12:05 10° ENE visible
